Aérodrome :
LOGIN :

S'inscrire | Disclaimer

   EN    FR    IT 

 










Légende :    VFR   VFR Marginal   IFR   IFR Intensif   IFR Très Intensif
Visi : 
Plafond : 
>= 8 km
>= 3000ft
5 à 8 km
1000 à 3000 ft
1500m à 5 km
500 à 1000 ft
800 à 1500m
200 à 500 ft
< 800m
< 200 ft
Symboles :   Orages  Brouillard  Fortes neiges  Fortes précipitations  Vent > 20 kt
SIGMETs :   Divers  Orages  Givrage  Turbulence  Onde Orograph.  Cendres Volcan.






- Altitude de l'aérodrome : 481 ft
- Code IATA : DNK


UKDD - Dnipropetrovs'k

DERNIER METAR :
  • 190900Z 32007MPS 9999 BKN027 12/05 Q1020 R26/090070 NOSIG

METARs EXPIRÉS :
  • 190800Z 32007MPS 9999 BKN024 11/05 Q1020 R26/090070 NOSIG
  • 190700Z 32006MPS 280V350 9999 BKN025 11/05 Q1020 R26/090070 NOSIG
  • 190600Z 33006MPS 9999 BKN029 11/05 Q1020 R26/090070 NOSIG

TAF TAF UKDD
Valide du 19 à 06h jusqu'au 20 à 06h UTC


190501Z 1906/2006 31006G11MPS 9999 BKN030
TEMPO 1906/1916 34009G14MPS
FIR UKDV / Europe



MET'MAP, la Météo Aéronautique d'un coup d'oeil ! - Copyright ORBIFLY Décembre 2007 - Disclaimer

ORBIFLY MET'MAP TEAM :

Programmation & Développement : Alexandra Zaïnal
Sur une idée originale de : Baudouin d'Aumeries
Assistance à la programmation : Marc-Olivier Méhu
Soutien technique & logistique : Manuel Goepfert

Contact : metmap@orbifly.com




SOURCES & CREDITS :

   NOAA